STARLINK-5219 (54094 NORAD) Tracking and Keplerian Element Data

This shows tracking and keplerian element data for the satellite.

Feedback or suggestion? Click here.




ElementValue
Catalog54094
NameSTARLINK-5219
Epoch Orbit130
Epoch Day324.91667824
Epoch Year2022
RAAN352.9485
Inclination53.2157
Eccentricity0.0003689
Argument of Perigee1.4737
Mean Anonmoly147.5935
Mean Motion15.73137893
Decay Rate0.00089961
L11 54094U 22136AV 22324.91667824 .00089961 00000+0 64008-3 0 9995
L22 54094 53.2157 352.9485 0003689 1.4737 147.5935 15.73137893 1306



Live tracking and technical data element details for STARLINK-5219 (NORAD 54094). STARLINK-5219 can be tracked NOW for your location showing map with azimuth and elevation plus other details from your city location.







IsCatalogInMostPopularTable: catalog: 54094, numindb: 1
Update: records affected: 1



GetName: 54094 STARLINK-5219

Hit Count: updated at: Mon, 28 Nov 2022 21:28:38 GMT